Date String (YYYY-MM-DD hh:mm:ss) UTC,Instrument flags,Ambient pressure (hPa),Sample flow (lpm),Bypass flow (lpm),Sample temperature (°C),Ambient temperature (°C),ASC tube jacket temperature (°C),LED temperature (°C),Box temperature (°C),Sample RH (%),Span deviation,Mass concentration (μg/m³),Mass concentration (μg/m³),Mass concentration (μg/m³)
DateTimeUTC,F1_M11,P_M11,Q1_M11,Q2_M11,T1_M11,T2_M11,T3_M11,T4_M11,T5_M11,U1_M11,ZSPAN_M11,X0_M11,X2_M11,X1_M11
2022-12-07 09:00:00,,0825.0,5.00,0.00,21.7,21.6,00.0,30.5,23.7,08.9,0000.0,0003.94,0001.07,0000.85
2022-12-07 09:01:00,,0825.0,5.00,0.00,21.8,22.0,00.0,30.5,23.9,09.0,0000.0,0003.67,0001.07,0000.86
2022-12-07 09:02:00,,0825.0,4.99,0.00,21.9,21.7,00.0,30.6,23.9,09.0,0000.0,0003.74,0001.10,0000.88
2022-12-07 09:03:00,,0825.2,4.99,0.00,21.9,21.3,00.0,30.6,23.8,09.1,0000.0,0003.76,0001.13,0000.90
2022-12-07 09:04:00,,0825.2,5.01,0.00,21.8,21.0,00.0,30.7,23.7,09.6,0000.0,0003.73,0001.14,0000.92
2022-12-07 09:05:00,,0825.2,5.01,0.00,21.9,20.9,00.0,30.7,23.7,10.2,0000.0,0003.76,0001.15,0000.95
2022-12-07 09:06:00,,0825.2,5.00,0.00,21.9,20.8,00.0,30.7,23.7,10.2,0000.0,0003.88,0001.22,0001.01
2022-12-07 09:07:00,,0825.2,4.99,0.00,21.9,20.7,00.0,30.7,23.7,10.5,0000.0,0004.10,0001.33,0001.08
2022-12-07 09:08:00,,0825.2,4.99,0.00,21.8,20.6,00.0,30.7,23.6,10.5,0000.0,0004.42,0001.48,0001.15
2022-12-07 09:09:00,,0825.3,5.01,0.00,21.8,20.5,00.0,30.7,23.6,10.6,0000.0,0003.08,0001.58,0001.21
2022-12-07 09:10:00,,0825.3,5.01,0.00,21.8,20.5,00.0,30.7,23.6,10.8,0000.0,0002.98,0001.70,0001.30
2022-12-07 09:11:00,,0825.2,5.01,0.00,21.8,20.4,00.0,30.7,23.6,10.9,0000.0,0003.85,0001.88,0001.41
2022-12-07 09:12:00,,0825.3,4.99,0.00,21.8,20.4,00.0,30.7,23.6,10.8,0000.0,0005.47,0002.06,0001.54
2022-12-07 09:13:00,,0825.3,4.99,0.00,21.8,20.4,00.0,30.7,23.5,11.0,0000.0,0005.90,0002.28,0001.67
2022-12-07 09:14:00,,0825.3,5.00,0.00,21.8,20.4,00.0,30.7,23.5,10.8,0000.0,0006.12,0002.44,0001.79
2022-12-07 09:15:00,,0825.4,5.01,0.00,21.7,20.3,00.0,30.7,23.5,10.7,0000.0,0006.43,0002.64,0001.91
2022-12-07 09:16:00,,0825.4,5.01,0.00,21.7,20.3,00.0,30.7,23.5,10.5,0000.0,0006.91,0002.83,0001.99
2022-12-07 09:17:00,,0825.4,5.00,0.00,21.7,20.6,00.0,30.7,23.6,11.0,0000.0,0007.30,0003.00,0002.07
2022-12-07 09:18:00,,0825.5,5.00,0.00,21.8,21.6,00.0,30.6,23.8,11.2,0000.0,0007.83,0003.10,0002.15
2022-12-07 09:19:00,,0825.5,4.99,0.00,21.9,22.2,00.0,30.7,24.0,11.2,0000.0,0008.05,0003.16,0002.24
2022-12-07 09:20:00,,0825.5,4.98,0.00,22.0,21.8,00.0,30.7,24.0,11.2,0000.0,0008.87,0003.27,0002.33
2022-12-07 09:21:00,,0825.4,5.00,0.00,22.0,21.6,00.0,30.8,23.9,11.2,0000.0,0009.49,0003.31,0002.41
2022-12-07 09:22:00,,0825.5,5.00,0.00,22.0,21.3,00.0,30.8,23.9,11.3,0000.0,0009.14,0003.32,0002.46
2022-12-07 09:23:00,,0825.5,5.00,0.00,22.0,21.1,00.0,30.8,23.8,11.3,0000.0,0008.56,0003.39,0002.52
2022-12-07 09:24:00,,0825.5,5.00,0.00,22.0,20.9,00.0,30.8,23.8,11.3,0000.0,0008.45,0003.41,0002.58
2022-12-07 09:25:00,,0825.6,5.00,0.00,21.9,20.8,00.0,30.8,23.8,11.3,0000.0,0008.56,0003.46,0002.66
2022-12-07 09:26:00,,0825.6,5.01,0.00,21.9,20.7,00.0,30.8,23.7,11.4,0000.0,0008.63,0003.51,0002.76
2022-12-07 09:27:00,,0825.6,5.01,0.00,21.9,20.6,00.0,30.8,23.7,11.4,0000.0,0008.65,0003.55,0002.88
2022-12-07 09:28:00,,0825.6,5.00,0.00,21.9,20.6,00.0,30.8,23.7,11.4,0000.0,0008.68,0003.59,0002.99
2022-12-07 09:29:00,,0825.6,5.00,0.00,21.9,20.5,00.0,30.8,23.6,11.4,0000.0,0008.29,0003.62,0003.09
2022-12-07 09:30:00,,0825.6,5.00,0.00,21.9,21.0,00.0,30.8,23.8,11.4,0000.0,0008.69,0003.67,0003.15
2022-12-07 09:31:00,,0825.7,5.00,0.00,22.0,22.0,00.0,30.7,24.0,11.4,0000.0,0008.17,0003.70,0003.20
2022-12-07 09:32:00,,0825.7,4.99,0.00,22.1,22.3,00.0,30.8,24.1,11.3,0000.0,0007.79,0003.75,0003.25
2022-12-07 09:33:00,,0825.7,4.98,0.00,22.1,21.9,00.0,30.9,24.1,11.2,0000.0,0008.23,0003.85,0003.30
2022-12-07 09:34:00,,0825.7,4.99,0.00,22.1,21.6,00.0,30.9,24.0,11.2,0000.0,0008.57,0003.90,0003.34
2022-12-07 09:35:00,,0825.9,5.01,0.00,22.1,21.3,00.0,30.9,23.9,11.2,0000.0,0009.11,0003.92,0003.36
2022-12-07 09:36:00,,0826.3,5.00,0.00,22.1,21.1,00.0,31.0,23.9,11.2,0000.0,0009.17,0003.95,0003.39
2022-12-07 09:37:00,,0825.8,5.00,0.00,22.1,21.0,00.0,31.0,23.9,11.2,0000.0,0009.22,0003.97,0003.40
2022-12-07 09:38:00,,0826.1,5.00,0.00,22.1,21.0,00.0,31.0,23.9,11.1,0000.0,0009.36,0004.00,0003.40
2022-12-07 09:39:00,,0826.2,5.00,0.00,22.1,20.9,00.0,31.0,23.9,11.1,0000.0,0009.44,0004.00,0003.40
2022-12-07 09:40:00,,0826.0,5.00,0.00,22.1,20.9,00.0,31.0,23.9,11.1,0000.0,0009.50,0004.02,0003.38
2022-12-07 09:41:00,,0825.8,5.00,0.00,22.1,20.8,00.0,31.0,23.9,11.1,0000.0,0009.20,0004.00,0003.37
2022-12-07 09:42:00,,0825.7,5.00,0.00,22.0,20.8,00.0,31.0,23.9,11.0,0000.0,0009.84,0004.00,0003.35
2022-12-07 09:43:00,,0825.7,4.99,0.00,22.0,20.7,00.0,31.0,23.9,11.0,0000.0,0010.31,0003.99,0003.34
2022-12-07 09:44:00,,0825.6,5.00,0.00,22.0,20.6,00.0,31.0,23.8,11.0,0000.0,0010.02,0003.97,0003.32
2022-12-07 09:45:00,,0825.8,5.01,0.00,22.0,20.5,00.0,31.0,23.8,11.0,0000.0,0009.88,0003.96,0003.30
2022-12-07 09:46:00,,0825.8,5.01,0.00,22.0,20.9,00.0,30.9,23.8,11.0,0000.0,0009.34,0003.98,0003.28
2022-12-07 09:47:00,,0825.7,5.00,0.00,22.1,21.9,00.0,30.9,24.1,11.0,0000.0,0009.27,0003.96,0003.27
2022-12-07 09:48:00,,0825.6,5.00,0.00,22.2,22.2,00.0,30.9,24.2,10.8,0000.0,0009.18,0003.93,0003.25
2022-12-07 09:49:00,,0825.6,4.99,0.00,22.2,21.9,00.0,31.0,24.2,10.8,0000.0,0008.95,0003.88,0003.23
2022-12-07 09:50:00,,0825.7,5.01,0.00,22.2,21.5,00.0,31.0,24.1,10.7,0000.0,0009.07,0003.85,0003.22
2022-12-07 09:51:00,,0826.0,5.00,0.00,22.2,21.3,00.0,31.0,24.0,10.7,0000.0,0008.99,0003.83,0003.21
2022-12-07 09:52:00,,0826.1,5.00,0.00,22.1,21.1,00.0,31.1,24.0,10.8,0000.0,0008.81,0003.83,0003.19
2022-12-07 09:53:00,,0826.0,5.02,0.00,22.1,20.9,00.0,31.1,24.0,10.8,0000.0,0008.10,0003.82,0003.18
2022-12-07 09:54:00,,0825.8,5.01,0.00,22.1,20.8,00.0,31.1,24.0,10.7,0000.0,0007.46,0003.78,0003.16
2022-12-07 09:55:00,,0825.7,4.99,0.00,22.1,20.8,00.0,31.1,23.9,10.8,0000.0,0007.53,0003.76,0003.16
2022-12-07 09:56:00,,0825.8,4.99,0.00,22.1,20.8,00.0,31.1,23.9,10.8,0000.0,0007.54,0003.67,0003.14
2022-12-07 09:57:00,,0826.0,5.01,0.00,22.1,20.8,00.0,31.1,23.9,10.7,0000.0,0007.52,0003.62,0003.11
2022-12-07 09:58:00,,0825.9,5.01,0.00,22.1,20.8,00.0,31.1,23.9,10.6,0000.0,0007.49,0003.58,0003.05
2022-12-07 09:59:00,,0825.9,4.99,0.00,22.1,20.8,00.0,31.1,23.9,10.5,0000.0,0007.51,0003.57,0003.00
